Location: Collingbourne Kingston
(51.3000°N, 1.6500°W)
Time: 22:35:07
(UTC+00:00)

Daily predictions for brighter satellites

Satellite Brightness Start Highest point End
(mag) Time Altitude Azimuth Time Altitude Azimuth Time Altitude Azimuth
CENTAUR R/B 3.3 18:15:41 10° NW 18:23:28 70° NE 18:32:10 10° ESE
Iridium 4 Rocket 3.8 18:24:03 10° S 18:29:19 88° W 18:35:03 10° N
CSL-04 Debris 4.2 18:26:24 10° SSE 18:31:42 62° ENE 18:37:02 10° N
Cosmos 1025 Rocket 3.3 18:28:51 10° N 18:33:09 51° ENE 18:37:26 10° SSE
Helios 1A Rocket 3.7 18:29:22 10° S 18:33:26 59° WSW 18:37:33 10° NNW
CSL-04 Rocket 3.8 18:28:17 10° SSE 18:33:40 61° ENE 18:39:08 10° N
NOSS 2-2 (D) 3.1 18:31:08 10° SW 18:34:39 71° SE 18:38:41 10° NE
Cosmos 1937 Rocket 3.8 18:29:36 10° SSW 18:34:49 76° WNW 18:40:03 10° NNE
ATLAS 2AS CENTAUR R/B 4.0 18:29:08 10° SSE 18:34:50 22° ESE 18:40:33 10° ENE
Okean 2 Rocket 3.5 18:30:50 10° SSE 18:35:03 42° E 18:39:17 10° NNE
ATLAS 3B R/B 3.4 18:29:20 10° NW 18:35:42 41° NNE 18:42:17 10° E
YAOGAN 1 2.6 18:31:50 10° SSE 18:36:10 83° ENE 18:40:31 10° NNW
SKYMED 2 3.8 18:33:03 10° NNE 18:37:25 81° WNW 18:41:46 10° SSW
Abrixas rocket 2.8 18:36:40 10° W 18:39:21 37° SSW 18:42:01 10° ESE
CREW DRAGON DEMO-1 DEB 3.2 18:38:13 10° W 18:41:12 57° SSW 18:44:10 10° ESE
CZ-4B R/B 4.2 18:38:44 10° N 18:41:36 24° WNW 18:44:28 10° WSW
Cosmos 1536 Rocket 3.8 18:38:35 10° N 18:42:56 49° ENE 18:47:16 10° SSE
Cosmos 1125 Rocket 4.1 18:42:40 10° SSE 18:47:26 35° ESE 18:52:13 10° NE
SJ-6B 4.0 18:48:32 10° ESE 18:51:34 24° ENE 18:54:38 10° N
USA 238 DEB 4.1 18:45:45 10° NW 18:52:54 74° SW 19:00:21 10° SSE
USA 238 4.1 18:45:51 10° NW 18:53:01 74° SW 19:00:28 10° SSE
CZ-4 R/B 2.2 18:49:39 10° S 18:53:48 56° W 18:57:55 10° NNW
Cosmos 2150 Rocket 4.2 18:48:59 10° S 18:54:15 56° ESE 18:59:36 10° NNE
SJ-11-01 4.2 18:50:09 10° SSE 18:54:50 78° ENE 18:59:33 10° NNW
Cosmos 1674 3.1 18:51:39 10° N 18:55:20 41° ENE 18:58:59 10° SE
CZ-2C R/B 3.3 18:50:31 10° SSE 18:55:57 87° WSW 19:01:42 10° NNW
Cosmos 1464 Rocket 3.9 18:49:56 10° S 18:56:00 69° E 19:02:11 10° NNE
Cosmos 1092 Rocket 4.4 18:50:16 10° N 18:56:07 42° ENE 19:01:58 10° SE
Okean-O 3.8 18:53:24 10° S 18:57:41 47° W 19:02:00 10° NNW
Cosmos 2285 Rocket 4.4 18:52:28 10° SSE 18:58:12 38° ESE 19:04:01 10° NE
MOS 1 Rocket 3.3 18:58:02 10° NNE 19:02:17 46° E 19:06:25 10° S
FREGAT/IRIS 3.7 19:04:41 19° E 19:05:12 20° ENE 19:07:16 10° NNE
In-Cosmos 22 4.3 19:04:13 10° NNW 19:09:31 75° W 19:14:53 10° S
Cosmos 1048 Rocket 4.4 19:05:20 10° NNW 19:10:39 68° WSW 19:15:58 10° SSE
ARGOS 3.1 19:06:10 10° SSE 19:11:32 79° ENE 19:16:57 10° NNW
CZ-2C R/B 3.3 19:07:21 10° NNE 19:12:25 34° E 19:17:29 10° SSE
Cosmos 1340 Rocket 4.1 19:15:11 19° E 19:15:21 19° E 19:18:14 10° NE
Cosmos 1733 4.1 19:13:48 11° SSE 19:16:58 28° E 19:20:16 10° NNE
DMSP B5D1-3 4.5 19:12:00 10° NNE 19:17:08 89° ESE 19:22:15 10° SSW
Lacrosse 5 rocket 2.5 19:13:14 10° WNW 19:17:21 40° N 19:20:43 15° ENE
Cosmos 2151 Rocket 3.5 19:13:12 10° S 19:17:40 79° E 19:22:12 10° NNE
Cosmos 2082 Rocket 3.3 19:13:20 10° NNW 19:18:10 28° NE 19:21:17 18° E
HJ-1C 4.0 19:15:10 10° S 19:18:25 56° W 19:21:42 10° NNW
MOS 1 4.5 19:13:29 10° SE 19:19:01 55° ENE 19:24:36 10° N
NOSS 2-2 (C) 4.0 19:15:57 10° WSW 19:19:27 52° NW 19:23:36 10° NE
BREEZE-M DEB (TANK) 4.0 19:18:41 10° W 19:21:32 33° SSW 19:27:36 12° SE
BREEZE-M R/B 4.5 19:11:36 10° WSW 19:22:27 47° SSE 19:24:25 23° ESE
Cosmos 494 Rocket 4.1 19:18:10 10° NNW 19:23:27 78° WSW 19:28:43 10° SSE
Meteor 1-15 Rocket 4.2 19:22:47 10° S 19:28:24 68° E 19:34:09 10° NNE
Cosmos 1805 3.4 19:25:01 10° S 19:28:47 51° E 19:32:37 10° NNE
OBJECT-B 1.7 19:28:48 29° E 19:29:11 30° ENE 19:32:05 10° N
Ariane Rocket 2.9 19:28:19 10° SSE 19:33:23 75° ENE 19:38:30 10° NNW
SL-08 RB Rocket 3.6 19:28:50 10° SSE 19:33:25 88° ENE 19:37:59 10° NNW
H-2A R/B 2.8 19:30:00 10° S 19:34:54 54° W 19:39:59 10° NNW
SJ 16-02 4.5 19:33:20 10° WNW 19:35:02 12° NW 19:36:45 10° NNW
Cosmos 1269 Rocket 4.0 19:30:04 10° NNW 19:35:25 79° ENE 19:39:33 17° SSE
Nadezhda 4 Rocket 4.2 19:30:38 10° NNW 19:36:44 71° W 19:42:49 10° S
KORONAS-FOTON 4.0 19:32:59 10° NNW 19:36:56 73° W 19:40:50 10° S
Cosmos 1626 2.1 19:37:01 10° N 19:40:41 56° ENE 19:42:02 34° SE
Okean 1-7 Rocket 4.4 19:36:43 10° N 19:40:52 33° ENE 19:41:50 30° E
Cosmos 2263 Rocket 4.2 19:38:31 10° W 19:43:15 27° NW 19:48:02 10° NNE
COSMOS 2406 3.2 19:38:53 10° NNW 19:44:34 72° ENE 19:47:55 26° SE
USA 186 2.0 19:42:34 18° S 19:44:52 69° WSW 19:48:11 10° NNW
MetOp-A 4.1 19:40:20 14° SSE 19:44:56 76° ENE 19:50:19 10° NNW
Cosmos 1455 Rocket 4.4 19:47:18 22° ENE 19:47:18 22° ENE 19:49:45 10° NNE
ISS -3.8 19:43:33 10° W 19:46:57 85° N 19:47:46 49° E
Cosmos 1844 Rocket 2.8 19:41:27 10° SW 19:47:01 76° WNW 19:52:40 10° NNE
ATLAS CENTAUR R/B 3.8 19:47:52 10° NNW 19:48:46 11° N 19:49:40 10° NNE
Cosmos 2278 Rocket 2.9 19:51:32 30° ESE 19:51:32 30° ESE 19:56:15 10° NE
Lacrosse 4 Rocket 2.0 19:48:16 10° NNW 19:52:07 39° NE 19:52:52 35° ENE
IRS-1A Rocket 4.5 19:48:22 10° SSE 19:54:16 79° WSW 20:00:07 10° NNW
Cosmos 1844 3.8 19:49:00 10° SSW 19:54:42 81° WNW 20:00:22 10° NNE
Meteor 2-5 Rocket 3.8 19:49:20 10° NNW 19:55:02 82° W 20:00:47 10° S
Meteor 1-22 Rocket 4.4 19:50:30 10° S 19:56:18 60° E 20:02:18 10° NNE
Cosmos 909 Rocket 4.4 19:50:31 10° NW 19:57:06 54° NE 19:59:55 31° ESE
Cosmos 2034 Rocket 4.5 19:50:55 10° SSW 19:57:14 65° WNW 20:03:32 10° N
Meteor 1-24 Rocket 3.6 19:51:47 10° NNW 19:57:22 83° ENE 20:01:37 19° SSE
Exosat Rocket 3.4 19:53:51 10° SSW 19:59:07 90° ESE 20:04:12 10° NNE
SL-14 R/B 3.1 19:56:41 10° N 20:00:39 82° E 20:01:54 42° SSE
Okean 1 Rocket 3.1 19:56:55 10° SSW 20:01:24 80° WNW 20:05:56 10° N
NOSS 3-4 (A) 3.4 19:56:12 10° SSW 20:02:01 60° SE 20:08:17 10° NE
NOSS 3-4 (C) 3.4 19:56:19 10° SSW 20:02:07 60° SE 20:08:23 10° NE
Resurs 01 Rocket 1.9 20:03:26 45° E 20:04:06 49° ENE 20:08:24 10° N
Cosmos 1833 Rocket 2.6 20:03:59 10° NNW 20:09:41 81° ENE 20:11:54 39° SE
Cosmos 1470 4.5 20:12:29 21° NE 20:12:29 21° NE 20:14:02 10° NNE
Cosmos 1766 3.5 20:06:40 10° SSW 20:10:34 70° W 20:14:33 10° N
CZ-2C R/B 4.4 20:06:48 10° NNE 20:09:58 35° ENE 20:09:58 35° ENE
Cosmos 2251 Rocket 3.8 20:07:19 10° NNW 20:12:36 53° ENE 20:13:44 45° E
CENTAUR R/B 4.0 20:06:36 10° NW 20:14:10 45° WSW 20:22:00 11° S
ERS-1 Rocket 4.3 20:17:40 24° NE 20:17:40 24° NE 20:21:26 10° N
ARIANE 5 R/B 3.2 20:20:05 40° NE 20:20:05 40° NE 20:23:45 10° N
SPOT 3 Rocket 3.5 20:20:51 40° SSE 20:22:45 88° WSW 20:27:57 10° NNW
Cosmos 1634 Rocket 4.0 20:18:36 10° S 20:24:47 83° W 20:31:03 10° N
ATLAS 2AS CENTAUR R/B 2.9 20:16:52 10° SSW 20:24:48 76° SE 20:32:38 10° NE
SJ-6B 4.1 20:24:09 21° SSW 20:26:04 35° W 20:29:37 10° NNW
ATLAS 3B R/B 2.7 20:20:07 10° NW 20:26:58 78° SW 20:29:50 39° SSE
Resurs 1-3 3.7 20:26:18 48° S 20:27:26 71° WSW 20:31:51 10° NNW
Cosmos 1892 Rocket 3.6 20:23:23 10° NNW 20:27:44 74° W 20:28:36 54° SSW
Landsat 7 4.2 20:27:59 45° ENE 20:27:59 45° ENE 20:32:17 10° N
Meteor 1-21 Rocket 4.4 20:26:57 10° N 20:32:39 55° ENE 20:33:15 53° E
SPOT 5 4.2 20:33:48 29° NE 20:33:48 29° NE 20:38:03 10° N
Cosmos 1655 Rocket 3.9 20:29:59 10° N 20:36:17 72° ENE 20:37:50 52° SE
Cosmos 1461 3.9 20:34:58 10° NNW 20:39:30 42° NE 20:39:30 42° NE
CRYOSAT 2 4.3 20:46:16 10° N 20:51:12 84° W 20:51:19 83° WSW
Cosmos 1340 Rocket 3.8 20:50:43 39° WSW 20:51:29 44° WNW 20:55:22 10° N
CZ-2C R/B 3.7 20:47:32 10° N 20:52:50 47° WNW 20:58:11 10° SW
Lacrosse 5 rocket 2.0 20:52:35 10° WNW 20:56:20 59° NNW 20:56:20 59° NNW
Cosmos 2180 Rocket 4.4 20:57:16 49° S 20:59:07 89° ESE 21:05:33 10° N
MetOp-B 4.0 20:58:51 76° SSW 20:59:11 81° WSW 21:04:35 10° NNW
Cosmos 2098 Rocket 3.9 20:53:52 10° NNW 21:00:44 81° W 21:01:45 63° SSW
Cosmos 2279 Rocket 4.1 20:57:29 25° SSW 21:01:17 73° WNW 21:07:34 10° N
OBJECT-B 3.4 21:02:00 20° W 21:02:00 20° W 21:04:06 10° NW
Cosmos 2082 Rocket 2.2 20:57:11 10° NNW 21:02:48 72° WSW 21:03:08 70° SW
Spot 2 Rocket 3.6 21:05:26 70° N 21:05:26 70° N 21:09:56 10° NNW
Meteor 2-21 4.5 21:03:45 10° N 21:09:42 66° ENE 21:09:42 66° ENE
Cosmos 1809 Rocket 4.3 21:08:04 10° N 21:14:13 80° ENE 21:14:13 80° ENE
Terra 3.2 21:21:44 30° NNE 21:21:44 30° NNE 21:24:26 10° N
Cosmos 1140 Rocket 4.4 21:17:36 10° NNW 21:21:18 42° NNE 21:21:18 42° NNE
ISS -0.5 21:20:25 10° W 21:20:44 12° W 21:20:44 12° W
Cosmos 1455 Rocket 4.4 21:24:24 38° NW 21:24:24 38° NW 21:27:58 10° N
Cosmos 407 Rocket 4.2 21:22:39 10° NNW 21:26:26 48° N 21:26:26 48° N
SPOT 1/Viking Rocket 4.0 21:29:22 58° NW 21:29:22 58° NW 21:33:39 10° NNW
ATLAS CENTAUR R/B 3.9 21:26:26 10° NNW 21:27:26 14° N 21:27:26 14° N
Lacrosse 4 Rocket 3.5 21:27:06 10° NW 21:29:10 23° WNW 21:29:10 23° WNW
Cosmos 2278 Rocket 2.7 21:33:00 35° WSW 21:35:11 56° NW 21:40:46 10° NNE
Resurs 01 Rocket 3.7 21:41:01 23° W 21:41:01 23° W 21:44:23 10° NW
Cosmos 2266 Rocket 4.5 21:39:07 10° NNW 21:44:55 50° W 21:45:08 50° W
NOSS 3-4 (A) 4.4 21:47:23 10° WSW 21:53:10 45° NNW 21:59:30 10° NE
NOSS 3-4 (C) 4.4 21:47:28 10° WSW 21:53:16 45° NNW 21:59:36 10° NE
ERS-1 Rocket 4.2 21:57:40 38° NW 21:57:40 38° NW 22:00:54 10° NNW
SPOT 5 4.4 22:13:03 37° NW 22:13:03 37° NW 22:16:30 10° NNW
ATLAS 2AS CENTAUR R/B 3.8 22:08:46 10° W 22:16:24 47° NNW 22:23:49 10° NE
ATLAS 3B R/B 4.4 22:11:55 10° WNW 22:16:45 21° WSW 22:17:05 20° WSW
NOSS 3-1 (C) 4.2 22:31:10 10° NW 22:37:24 63° N 22:37:24 63° N
CZ-4C R/B 4.2 22:45:17 22° NE 22:45:17 22° NE 22:47:42 10° NE
COSMOS 2455 4.3 22:57:42 33° N 22:57:42 33° N 23:01:41 10° NNE
Cosmos 2297 Rocket 4.2 22:52:53 10° NNW 22:56:27 21° NNE 22:56:27 21° NNE
Terra 4.4 23:00:37 16° NW 23:00:37 16° NW 23:01:54 10° NW
Cosmos 2369 Rocket 4.4 23:10:31 19° NNE 23:10:31 19° NNE 23:11:59 10° NNE
SL-16 R/B 4.4 23:50:37 21° NE 23:50:37 21° NE 23:55:04 10° N
